Theta_e
332 332 329 327 327 327 327 326 326 325 325 325 324 324 323 322 323 327 329 330 329 329 330 330 329 331 333 333 334 334 333 332 331 331 333 333 331 329 327 327 327 325 324 323 321 318 316 314 313 311 310 310 309 309 309 309 308 308 307 306 306 305 304 305 305 305 306 306 307 307 307 307 307 308 308 308 308 308 308 308 308 307 307 307 307
330 330 329 329 329 329 328 326 326 326 326 325 325 325 325 324 326 330 330 330 330 328 329 330 330 331 332 333 334 334 334 333 333 333 334 334 332 330 328 328 328 326 324 324 323 321 318 316 313 312 312 313 312 312 311 310 310 309 309 308 307 306 305 305 304 304 305 305 306 306 307 307 307 307 307 307 307 308 308 308 308 308 307 307 306
329 329 330 331 330 330 330 329 327 327 328 327 327 328 326 326 327 329 330 330 330 328 329 331 331 331 332 333 334 334 334 334 334 333 334 333 332 331 329 328 329 328 325 324 323 323 321 318 314 314 318 319 318 317 314 312 311 310 310 309 308 307 305 305 305 304 304 305 305 305 306 306 307 307 307 307 308 308 308 308 308 308 308 307 307
329 329 330 331 330 331 331 330 328 328 329 328 328 329 328 328 327 326 327 328 329 329 330 332 333 333 332 333 333 334 334 334 333 333 333 333 333 330 328 329 330 328 325 324 323 322 322 321 319 320 323 325 324 322 317 313 311 310 310 309 308 307 307 306 305 305 305 305 305 305 305 306 306 306 307 307 307 308 308 308 308 308 308 308 308
329 330 330 330 331 331 330 329 329 328 328 328 328 327 328 329 327 327 327 327 329 330 330 331 331 331 332 333 332 333 333 333 333 333 332 332 332 330 327 328 330 328 326 325 324 322 322 323 324 325 326 327 327 325 320 316 313 311 309 308 308 307 307 306 306 306 305 305 305 305 305 306 306 306 306 306 307 307 307 308 308 308 308 308 308
328 329 329 329 330 330 329 329 329 329 327 327 328 326 327 329 329 328 328 328 330 329 331 332 331 330 331 331 330 330 330 332 333 332 331 330 330 329 327 327 328 328 327 326 325 323 323 325 325 325 327 328 328 328 323 318 315 313 310 309 308 307 307 306 306 306 306 305 305 305 305 305 305 305 306 306 306 307 307 308 308 308 308 308 308
327 328 328 328 329 329 328 327 328 328 327 327 328 326 325 328 329 329 328 328 329 328 330 331 331 330 328 327 328 328 329 331 331 331 330 327 327 327 327 326 326 328 328 327 327 325 323 323 324 325 326 327 328 328 326 321 318 316 315 314 312 311 310 308 307 307 306 305 305 305 304 304 304 305 305 305 305 306 307 307 308 308 308 308 308
328 328 328 327 327 327 328 328 327 328 327 327 327 325 324 325 326 328 329 329 329 328 328 328 328 328 326 327 328 328 330 331 331 329 327 325 325 327 326 326 326 327 327 326 327 327 324 321 321 324 326 327 327 327 326 324 321 320 320 320 319 318 318 316 315 313 312 310 309 307 305 304 303 303 304 305 306 306 307 308 308 308 308 308 308
328 328 328 328 328 328 328 328 328 328 328 326 326 325 324 324 324 326 329 330 328 327 327 327 328 327 327 329 329 329 331 332 331 328 325 324 325 326 327 327 327 327 326 326 326 327 326 323 321 321 323 325 325 325 326 325 325 324 324 323 323 323 323 323 323 322 322 320 318 315 312 308 306 305 305 306 307 307 308 308 308 308 308 308 308
328 328 328 329 329 328 328 327 328 328 327 326 326 325 324 325 325 326 328 330 328 327 327 327 328 329 329 330 330 330 331 331 330 326 323 324 325 327 328 327 328 327 326 326 326 326 326 325 323 322 321 321 322 324 325 325 326 326 326 326 325 325 325 325 325 326 326 325 325 323 320 316 312 309 309 308 308 309 309 309 309 308 308 309 309
328 327 328 329 329 328 328 328 328 327 326 327 326 324 324 326 327 326 326 329 329 328 328 327 328 329 330 330 329 329 330 330 330 327 324 324 325 327 328 327 328 328 327 326 326 326 325 326 326 326 323 318 320 324 325 325 325 326 326 326 326 325 326 326 325 325 325 325 326 326 325 322 319 315 313 312 311 311 311 310 310 310 309 309 309
328 327 328 329 330 329 328 328 328 327 326 327 325 323 325 327 328 327 326 327 328 328 328 328 329 330 330 329 329 329 330 330 330 329 327 327 327 328 329 329 329 328 328 327 328 327 326 326 326 327 325 320 318 321 324 324 325 326 326 326 326 325 325 326 325 325 326 325 325 326 326 324 323 321 318 317 316 315 314 313 313 312 311 310 309
328 328 329 330 330 329 328 328 328 328 327 327 325 324 327 328 328 327 327 327 328 328 328 329 330 330 330 330 329 330 330 330 330 329 329 329 329 329 329 329 329 329 328 327 327 327 327 327 327 327 327 325 322 322 323 324 325 326 326 326 326 326 325 325 324 325 326 325 324 326 326 324 324 324 322 321 321 319 318 318 317 315 314 312 310
327 327 328 328 328 327 327 327 327 327 328 327 326 325 327 328 327 327 328 328 328 328 327 329 330 330 330 330 329 329 329 330 329 329 330 329 329 329 328 328 329 328 328 326 327 328 327 327 327 327 328 328 327 325 325 325 325 325 326 326 325 324 324 323 323 324 325 324 324 325 325 324 323 325 324 324 323 323 322 321 321 320 319 316 312
326 326 327 327 326 327 327 327 327 327 328 328 327 326 327 328 327 327 328 328 327 327 327 328 330 330 330 329 328 328 328 329 329 329 329 328 329 329 328 328 328 328 328 327 327 327 326 326 326 325 325 326 326 326 326 326 325 325 325 325 324 323 323 323 323 324 324 324 324 325 325 325 324 324 324 324 325 325 324 323 323 322 323 321 318
325 325 326 326 326 328 328 327 327 327 328 327 327 328 328 327 327 327 327 327 327 327 327 328 330 330 329 330 329 328 329 329 329 328 328 328 328 328 327 327 327 328 328 327 327 326 325 326 325 324 324 325 325 325 326 325 324 324 324 324 324 322 322 323 324 324 324 324 324 324 324 325 325 324 323 324 325 324 324 324 324 323 322 323 323
323 323 325 326 327 328 328 328 327 327 327 327 328 329 329 328 328 327 326 326 327 326 326 327 329 329 328 329 328 328 329 329 329 328 327 328 328 327 326 327 327 328 327 327 326 326 326 326 326 326 325 325 326 326 326 326 325 324 324 324 323 322 322 323 324 324 323 323 323 323 324 324 324 323 323 324 324 323 323 324 324 324 323 323 324
322 322 323 324 326 327 328 328 327 326 327 327 328 330 330 330 328 327 325 326 328 327 326 327 329 329 328 329 327 327 329 329 329 327 327 327 327 326 327 326 326 326 327 327 326 326 326 326 326 326 325 325 325 325 326 326 325 325 324 323 322 322 323 323 323 323 321 320 319 318 319 319 318 318 320 322 322 323 324 324 325 325 324 324 324
321 321 321 322 324 326 327 328 327 326 325 325 327 328 330 331 330 329 328 328 328 329 328 328 329 329 327 328 327 328 329 328 328 327 327 327 326 326 327 326 326 326 326 326 325 325 325 325 325 324 324 324 324 325 325 325 324 324 323 322 321 321 322 322 320 318 315 313 311 309 308 309 310 313 315 317 318 319 321 322 322 322 321 322 323
321 320 320 322 324 325 325 326 327 326 325 325 325 326 330 331 330 330 330 329 329 329 330 329 329 329 327 327 327 328 329 328 328 328 328 328 326 326 327 326 326 325 325 325 325 324 324 323 323 323 324 324 325 325 325 325 324 322 321 320 319 318 317 314 311 308 307 306 306 305 305 305 306 308 310 311 312 313 314 315 314 313 313 314 315
321 320 320 321 322 322 323 325 325 325 326 326 325 325 328 329 329 330 330 329 328 329 330 329 328 329 327 327 328 329 329 329 329 328 328 328 327 326 326 326 325 324 324 324 323 323 322 322 323 323 324 324 324 324 324 323 322 320 319 318 316 313 310 307 306 306 307 308 308 309 308 308 308 308 308 308 308 308 308 308 308 308 308 308 308
322 321 320 320 319 319 320 322 323 325 326 327 326 324 325 327 328 328 328 329 329 328 329 329 328 329 328 327 328 328 328 328 329 329 328 328 327 327 326 326 325 323 323 323 322 322 322 322 323 323 323 322 322 322 322 321 320 319 317 314 310 308 306 307 308 309 310 310 311 311 310 310 310 310 310 309 309 309 309 308 308 308 307 307 307
321 319 318 318 319 319 320 321 323 325 325 326 326 324 324 324 325 326 327 329 329 328 328 328 328 328 328 328 328 328 328 328 328 328 328 327 327 327 326 325 324 323 323 322 322 322 322 322 322 322 321 320 320 321 320 320 319 316 311 308 307 308 309 310 310 310 310 310 310 310 310 310 310 309 309 309 310 309 309 309 309 309 309 309 309
319 317 316 317 319 320 320 321 322 324 325 326 326 324 324 324 323 326 329 329 329 329 329 328 328 328 328 328 328 328 328 328 327 328 328 327 327 327 325 325 324 323 322 321 321 320 320 321 320 320 320 319 319 320 320 318 314 310 307 308 309 310 310 309 309 309 308 308 308 307 307 307 307 306 306 306 306 306 307 307 307 307 307 307 307
319 318 316 318 320 320 320 320 320 322 324 325 324 323 323 323 323 324 327 328 327 327 328 329 327 329 329 329 329 328 328 328 327 327 327 327 327 326 324 324 323 322 321 320 319 319 319 319 318 317 317 317 318 318 316 312 308 307 308 310 310 309 308 308 307 307 306 306 305 304 304 303 303 303 303 303 303 303 303 303 303 303 303 303 303
320 319 318 319 320 319 320 320 319 319 321 322 321 319 320 322 323 323 323 325 325 325 327 328 328 329 329 328 329 328 328 328 328 327 327 327 326 325 325 324 322 321 320 319 318 318 317 316 316 315 314 315 315 313 310 307 307 308 309 309 308 307 307 306 305 305 304 304 303 303 302 302 302 302 301 302 301 301 301 301 301 301 301 301 301
323 320 318 319 321 320 320 319 318 318 319 320 319 318 319 320 323 323 322 322 322 324 326 327 328 329 329 329 329 328 328 328 328 327 326 326 326 325 324 323 321 320 319 319 318 318 317 315 314 314 314 314 312 309 307 307 308 309 309 308 307 306 306 305 305 304 304 304 304 304 304 303 303 302 302 301 301 302 302 301 301 301 301 301 301
324 320 318 320 320 321 320 318 315 316 319 319 319 319 319 319 321 321 321 322 322 323 324 325 326 327 328 329 329 328 328 328 328 327 327 326 325 324 323 321 321 320 320 319 318 317 316 315 314 313 314 313 310 307 307 308 309 309 309 308 307 306 306 306 305 306 306 306 306 306 306 305 305 304 303 302 302 302 302 302 302 302 301 302 302
320 316 318 319 319 321 320 315 311 312 317 319 318 317 317 319 320 320 321 322 322 323 323 323 324 325 326 327 328 328 327 327 328 327 326 325 324 323 321 320 319 319 319 319 318 317 316 315 314 312 312 310 308 307 307 308 309 309 308 307 307 307 307 307 307 308 308 308 308 308 307 307 306 306 305 304 303 302 302 302 302 302 302 301 301
316 313 316 317 318 320 318 312 307 309 314 317 317 317 318 319 320 321 321 321 321 322 322 323 323 324 324 325 328 328 326 326 326 323 323 324 322 321 320 318 318 317 317 317 317 317 316 314 313 311 310 308 306 307 308 308 309 309 308 307 308 308 308 308 309 309 309 310 309 309 309 308 308 308 308 307 305 303 302 302 302 302 301 301 301
317 315 316 316 318 320 317 311 307 308 313 317 317 318 320 321 321 321 321 320 320 321 322 323 323 323 323 323 326 326 323 323 322 319 321 323 321 320 319 319 318 317 317 316 316 316 315 314 312 310 309 307 306 308 308 308 308 309 309 309 309 309 309 309 309 310 310 310 310 310 310 310 309 309 309 309 307 305 303 302 302 301 301 301 301
320 319 318 318 319 320 317 311 307 308 313 317 318 319 320 320 320 320 320 320 320 320 321 321 321 322 322 322 324 324 322 322 321 319 321 322 320 319 319 319 319 318 317 316 316 316 315 314 312 309 308 307 307 308 308 308 308 309 309 309 309 309 309 309 309 309 310 310 310 311 311 311 311 311 311 311 310 307 304 302 302 301 301 301 301
320 321 321 320 320 321 318 313 309 309 313 316 318 318 319 320 319 318 319 319 319 319 320 321 320 321 322 322 321 320 321 323 322 320 321 320 319 319 319 319 319 319 318 316 316 317 315 313 312 309 308 307 308 309 309 309 308 309 309 310 310 309 309 309 309 309 310 310 311 311 311 311 311 311 311 312 311 310 307 303 302 301 301 300 300
319 321 322 320 320 320 319 317 313 311 314 317 318 319 319 318 317 317 317 318 319 319 319 320 320 321 321 321 320 318 320 322 321 320 320 319 319 319 319 319 319 319 319 318 317 318 315 313 312 310 308 308 309 310 310 309 309 309 310 309 309 309 309 309 309 309 310 310 311 311 311 311 311 311 311 312 312 311 309 305 302 301 301 300 300
316 320 319 317 318 319 318 317 313 311 315 316 316 318 318 316 316 315 315 316 318 319 318 319 320 319 319 319 318 317 317 319 319 320 320 319 319 319 319 319 319 319 319 318 318 318 317 315 313 312 310 308 310 310 310 310 310 310 310 310 310 310 309 309 310 310 310 310 310 311 311 311 311 311 311 312 312 312 310 306 302 301 301 300 300
313 317 316 315 318 318 317 316 312 310 312 313 315 317 316 316 315 313 312 314 317 318 318 318 319 318 318 317 316 315 315 316 318 319 319 319 319 318 318 319 319 319 319 318 318 318 318 317 315 313 312 310 310 311 311 311 311 311 311 311 311 310 310 310 310 310 310 310 310 310 311 311 311 311 311 311 312 312 311 308 303 301 301 300 300
309 311 313 316 318 317 315 315 313 311 310 310 312 314 312 313 314 312 312 314 316 317 317 317 318 318 318 317 316 316 316 316 318 318 318 318 318 318 318 318 318 319 318 317 319 319 319 318 317 314 313 312 311 312 312 311 312 312 311 312 312 311 311 310 310 310 310 310 310 310 310 311 311 311 311 311 312 312 311 308 304 301 300 300 300
307 307 311 315 317 316 315 316 315 312 311 310 311 311 310 311 312 312 312 312 313 314 314 315 316 316 317 316 316 316 317 317 317 317 316 316 316 317 317 317 317 317 317 316 318 319 319 319 318 316 315 314 313 313 313 312 312 313 312 312 313 312 311 311 310 311 310 310 310 310 310 311 311 311 311 311 311 312 311 309 304 301 300 300 300
310 308 312 314 316 317 316 315 316 314 311 310 311 311 312 312 312 312 311 311 312 312 313 314 313 313 315 315 314 315 317 318 317 316 315 315 315 316 316 316 316 317 317 317 318 318 318 318 318 317 316 315 314 314 313 312 312 313 312 312 313 312 312 311 310 310 311 311 311 311 310 311 311 311 311 311 311 311 311 308 304 301 300 300 300
315 314 314 314 316 318 317 316 316 313 310 310 311 313 314 313 313 312 312 312 313 311 312 313 312 313 316 315 315 316 317 317 317 317 317 317 317 317 317 316 316 317 317 318 317 317 318 318 317 318 317 315 315 314 314 313 312 313 313 313 313 312 312 312 310 310 310 310 311 310 310 311 311 311 311 311 311 311 311 308 303 301 300 300 300
317 318 318 316 315 316 317 317 316 313 313 313 312 314 316 315 314 314 314 314 315 314 313 314 312 313 316 317 317 317 317 316 316 316 316 317 317 318 317 316 316 317 317 317 317 317 317 317 317 317 317 316 316 315 314 314 313 313 313 313 313 313 313 312 311 310 310 310 310 310 310 311 310 311 311 310 311 312 310 307 303 301 300 300 300
315 316 317 316 316 317 317 317 316 314 314 313 310 311 313 314 315 316 315 313 315 315 316 316 315 314 315 316 316 316 316 316 316 316 317 316 316 317 317 317 317 317 317 317 317 317 317 317 317 317 317 317 316 315 315 315 314 313 313 313 313 313 313 313 312 311 310 309 309 309 309 310 310 310 310 308 309 311 308 304 302 301 300 300 299
314 314 313 313 315 317 317 318 317 314 311 309 308 309 310 310 313 314 315 315 314 314 316 317 317 316 316 316 317 317 317 317 317 318 318 317 317 317 317 317 317 317 317 317 318 318 317 317 317 317 317 316 316 315 315 315 315 314 313 313 313 313 313 312 311 311 310 309 309 309 309 309 309 309 308 307 307 309 306 303 301 300 300 300 299
315 314 314 313 313 314 315 315 314 311 308 308 309 310 309 310 310 310 313 316 314 314 317 318 318 319 318 318 318 317 317 318 318 318 318 318 318 318 318 318 317 317 317 317 317 317 317 317 318 317 317 317 316 316 315 315 315 315 314 313 312 311 310 309 309 310 311 310 309 309 309 310 309 308 308 307 307 308 306 302 300 300 300 299 298
314 313 314 314 315 316 314 312 311 310 309 309 309 309 310 310 310 310 312 315 315 316 318 319 319 320 320 320 321 319 318 318 318 319 319 319 319 319 318 318 318 318 318 318 318 317 317 317 318 318 318 317 317 317 316 316 316 315 315 314 312 311 309 308 308 310 310 310 309 310 310 309 309 309 308 307 307 308 305 302 300 300 299 298 297
314 313 312 312 314 316 315 314 314 313 312 312 311 311 311 311 312 313 315 315 316 317 318 319 319 320 319 320 321 321 321 320 319 319 320 320 320 319 319 319 318 318 318 318 318 318 318 318 317 318 318 318 318 318 317 317 317 316 316 315 314 313 311 310 309 309 309 309 310 310 309 309 309 308 307 306 306 305 303 301 300 299 298 297 296
314 314 313 311 312 313 312 310 310 310 312 315 315 314 315 315 315 316 316 317 317 317 317 317 317 318 318 318 318 319 320 320 319 319 319 319 320 319 319 319 318 319 319 319 318 319 319 318 318 318 317 317 316 317 317 317 317 317 317 316 315 315 313 312 310 309 309 309 310 310 309 308 308 307 306 305 305 304 302 301 300 298 297 296 295
316 316 315 314 314 313 311 310 310 312 314 317 317 317 317 317 317 317 316 316 317 317 317 317 316 317 317 317 317 317 318 318 318 318 318 318 319 319 319 319 319 320 319 318 318 318 318 318 318 318 317 317 316 315 316 317 317 317 316 316 316 316 314 312 311 310 309 310 310 309 309 308 307 307 306 304 303 302 301 300 299 298 296 295 295
318 318 317 317 315 314 314 315 317 318 318 318 318 318 318 317 317 317 317 317 317 317 318 318 318 318 318 317 318 318 318 319 318 318 318 318 319 319 319 320 321 321 320 319 318 317 317 318 317 317 317 316 315 315 315 316 316 316 316 316 315 315 314 312 311 310 309 309 309 309 308 307 306 306 305 303 302 301 300 299 298 297 296 295 295
318 319 318 318 317 317 318 319 319 319 319 319 319 319 318 318 318 318 317 318 318 319 319 319 319 319 318 318 318 318 318 318 317 317 317 317 318 318 318 319 319 318 318 318 317 315 315 314 314 315 314 313 313 313 314 314 315 315 316 315 314 314 314 313 311 310 309 309 308 308 308 307 306 304 303 302 301 300 300 299 298 296 296 296 296
317 317 317 317 318 318 318 318 318 318 318 318 318 318 319 318 319 318 318 317 317 317 317 317 316 316 316 316 315 315 315 314 313 313 314 313 314 314 314 315 315 314 314 315 316 315 313 312 312 312 312 312 312 313 313 314 314 314 314 315 315 314 314 313 311 309 308 308 308 308 307 306 304 302 302 301 299 299 300 300 298 296 296 296 296
Wind_Speed
12 11 10 11 11 11 11 11 11 11 9 8 7 7 6 6 5 5 6 5 5 6 6 6 6 6 6 6 6 6 5 5 5 5 6 5 5 2 0 2 3 4 5 5 5 5 4 5 5 5 6 6 5 4 4 4 4 4 4 4 5 5 5 5 5 5 5 5 6 6 6 7 7 7 8 8 9 9 10 10 10 11 11 11 10
12 12 11 10 9 8 7 8 9 9 8 8 8 8 7 6 5 5 5 5 5 6 6 5 5 6 6 6 6 6 5 5 5 6 6 6 6 4 1 1 3 4 5 6 6 6 6 6 7 8 8 7 7 6 6 5 4 4 4 4 4 4 4 4 4 5 5 5 5 6 6 6 6 7 7 7 7 8 8 9 9 10 11 11 10
12 11 11 9 9 7 6 6 6 7 7 7 8 8 7 7 7 7 7 6 6 5 6 6 5 5 5 6 7 6 6 6 6 6 7 7 7 6 3 2 2 2 4 6 6 6 6 7 9 10 10 10 10 10 10 8 6 4 4 3 3 3 4 4 4 4 4 4 4 5 5 5 5 6 6 6 6 7 7 8 9 9 9 10 10
11 11 11 10 8 8 7 6 6 6 6 6 7 7 7 7 8 8 7 6 5 5 5 6 6 5 5 5 6 6 6 7 7 8 9 8 8 7 6 4 3 2 4 7 7 7 7 8 10 10 9 9 11 12 12 11 8 6 5 4 4 4 4 4 3 3 3 3 4 4 4 5 5 5 5 6 6 6 7 8 8 8 9 9 9
11 11 11 10 8 8 8 7 6 7 7 7 6 7 7 7 7 8 7 6 5 5 4 5 6 7 6 5 7 7 8 8 8 10 10 9 7 7 6 5 4 2 4 7 7 7 7 8 9 8 7 7 8 10 12 13 11 9 7 7 6 6 5 4 3 3 3 4 4 5 5 5 5 5 5 5 6 6 7 8 8 8 8 8 8
11 11 11 10 9 9 9 9 8 7 8 7 6 6 6 6 6 6 6 6 5 5 5 4 4 6 7 8 10 11 10 9 9 9 8 7 6 5 6 5 5 5 4 6 6 6 7 7 7 6 6 5 6 7 9 13 13 11 10 9 9 8 7 6 5 4 4 4 4 4 5 5 5 5 5 5 6 6 7 7 8 8 8 8 8
12 12 11 10 10 10 10 10 9 8 8 7 7 7 7 7 7 6 5 6 6 6 6 6 6 7 10 10 10 10 9 8 9 7 4 4 4 5 8 8 8 8 7 5 4 5 6 5 5 5 6 5 6 5 7 11 13 13 12 12 12 12 11 10 9 8 7 6 5 4 4 4 4 4 4 5 5 6 6 7 7 8 8 8 8
12 12 11 10 10 10 10 10 8 8 8 8 8 8 7 8 8 7 5 5 6 6 7 8 8 8 9 8 7 8 7 6 7 5 4 4 5 6 8 8 8 8 8 7 5 4 5 5 5 5 6 6 6 5 5 7 10 12 13 14 14 14 14 14 14 13 12 11 10 8 6 5 4 4 4 5 5 6 6 6 7 7 7 8 8
12 12 11 10 9 10 11 10 9 8 8 8 8 7 6 6 7 7 6 5 6 7 7 7 6 6 7 7 6 6 5 5 5 6 5 5 5 5 6 6 7 7 7 7 7 5 4 5 5 5 5 6 6 5 5 5 6 7 8 9 10 10 11 13 14 13 14 14 13 12 10 8 6 5 5 5 5 5 6 6 6 6 7 7 8
12 12 11 11 10 10 11 10 9 8 8 8 8 7 6 5 6 8 7 5 6 6 6 7 6 5 6 6 5 5 5 5 5 7 6 6 5 5 5 6 6 6 6 6 7 7 6 6 6 5 4 5 6 5 5 5 4 4 4 4 5 5 6 8 9 9 10 11 11 11 12 11 9 7 6 6 6 5 5 5 5 5 6 6 7
12 12 11 10 10 10 9 9 9 8 7 8 8 8 7 6 6 8 8 6 5 6 6 7 7 6 6 6 6 5 5 4 4 7 7 6 6 6 5 6 6 6 5 4 5 6 7 5 5 5 4 4 6 6 5 5 4 3 3 2 3 3 3 4 4 5 6 7 7 8 9 10 10 9 8 7 7 6 6 6 6 6 6 6 6
12 11 10 9 9 10 9 8 8 7 7 8 8 8 7 7 6 6 8 7 6 6 6 6 6 6 6 6 7 5 5 5 4 5 6 6 6 5 5 5 5 4 4 3 3 4 6 5 5 5 5 4 5 6 5 5 4 2 2 1 1 1 1 2 2 2 3 4 4 4 5 6 8 9 8 8 7 7 7 7 7 7 7 7 7
11 11 10 9 9 8 8 8 8 8 8 8 8 8 7 7 7 6 6 7 6 7 8 7 7 7 7 6 7 7 7 6 4 4 4 4 5 5 6 6 5 4 4 4 3 3 4 5 5 5 6 5 3 4 4 4 3 1 1 1 1 1 1 1 1 1 1 2 2 2 2 3 4 6 7 7 7 8 8 7 7 7 7 7 7
10 11 10 9 8 8 8 9 9 9 8 7 7 8 8 7 7 7 6 7 7 7 8 7 6 7 7 7 7 7 7 6 4 5 4 4 4 5 5 5 5 5 4 4 3 2 3 4 5 5 5 4 3 3 2 0 2 1 1 2 3 3 2 1 1 0 0 1 1 0 1 2 2 3 4 4 5 6 7 7 7 7 7 8 7
10 10 9 9 9 8 9 10 10 9 7 7 7 8 8 7 7 7 7 7 8 8 9 8 6 6 8 8 7 8 7 5 5 5 4 4 5 5 5 4 4 3 3 3 2 1 1 3 4 3 4 3 2 3 1 1 1 2 2 3 4 4 3 2 1 0 1 0 1 1 1 1 1 1 2 2 1 3 4 5 6 6 6 6 6
9 10 9 9 9 8 8 9 8 8 7 7 8 8 9 9 8 8 8 8 8 8 9 8 6 8 7 5 5 5 5 6 5 4 4 3 4 5 5 4 3 3 3 3 3 2 1 2 2 2 2 1 1 3 2 1 1 1 2 2 3 4 3 3 2 1 1 1 1 1 1 1 1 0 0 0 1 1 2 3 3 2 3 4 3
10 10 9 9 9 9 8 8 7 7 7 8 7 8 8 9 9 9 9 8 7 7 8 8 7 8 5 2 4 5 4 7 6 4 5 3 4 5 4 4 4 4 3 2 3 3 2 2 1 1 1 1 2 2 2 1 1 2 2 2 2 4 4 4 4 4 5 4 4 3 2 2 2 1 1 1 1 1 2 2 1 1 1 2 2
11 10 9 9 9 9 8 8 7 7 7 8 8 8 8 8 9 9 8 8 7 6 7 7 7 7 5 4 3 2 3 8 6 4 5 4 5 6 6 6 5 4 3 2 2 3 3 3 2 2 1 1 2 2 2 2 2 3 4 4 4 5 6 7 9 10 10 9 9 8 7 6 6 6 6 5 4 3 2 2 2 2 2 2 3
12 11 10 10 9 9 8 8 7 7 7 7 8 8 8 8 7 7 7 8 7 6 6 7 6 7 7 5 1 1 3 6 4 4 6 6 6 7 8 6 5 5 4 3 3 3 4 3 3 2 2 3 3 3 3 4 5 5 6 6 7 8 9 10 11 11 11 9 9 9 9 8 8 8 9 9 9 8 7 6 6 6 5 5 4
12 11 10 9 8 8 8 8 8 7 7 7 7 8 8 8 8 8 7 8 8 7 6 7 6 7 8 6 2 2 3 3 3 3 5 7 8 8 7 5 4 5 5 5 5 5 5 5 5 4 5 6 7 6 6 6 8 9 9 9 9 9 9 9 9 9 9 9 10 10 10 10 9 9 9 9 9 9 9 8 7 7 7 7 6
12 12 11 10 9 8 8 8 8 7 7 7 7 7 8 8 8 8 8 8 8 8 7 8 8 7 8 6 5 3 3 3 3 2 3 8 9 8 6 4 4 5 5 6 6 6 6 6 6 6 6 8 7 6 6 8 10 12 12 10 9 9 9 9 10 10 11 11 11 11 11 11 11 10 10 9 9 9 8 8 7 7 8 7 7
12 13 12 11 10 9 8 8 8 8 8 7 7 7 8 8 8 7 8 7 7 8 8 8 8 8 6 6 6 6 5 4 3 3 3 5 8 8 6 5 5 6 6 6 6 6 6 6 6 6 6 7 6 6 8 10 12 13 11 10 9 9 10 11 11 11 10 10 10 10 10 10 10 10 10 10 9 9 8 8 8 8 8 7 7
12 13 13 11 10 10 9 9 8 8 7 7 7 8 8 7 7 7 7 7 6 7 7 7 6 7 7 6 6 6 5 4 5 5 3 4 7 8 7 7 7 7 6 7 7 6 6 6 6 7 8 8 8 9 10 11 12 12 11 11 11 10 10 10 10 9 9 9 8 9 9 9 9 8 9 9 8 8 8 8 7 7 7 7 7
12 13 13 12 11 10 10 9 9 8 8 7 7 7 7 6 6 7 7 7 7 6 5 5 5 7 7 5 5 5 4 4 5 5 4 5 7 8 9 9 10 9 8 9 8 7 7 7 6 8 10 10 10 10 10 10 11 12 12 11 11 10 9 9 8 8 8 8 8 8 8 8 8 8 8 8 8 7 7 7 7 6 6 6 6
13 14 13 12 11 10 10 9 9 9 8 7 7 7 7 7 6 6 7 7 7 6 5 6 6 7 7 5 5 6 5 4 6 6 5 6 8 9 10 10 11 11 10 10 10 9 8 8 8 9 10 10 10 9 9 10 11 11 11 10 10 9 8 8 8 7 7 8 8 9 9 9 9 9 9 9 9 8 8 8 7 7 7 7 7
13 13 13 12 10 10 9 8 9 9 9 8 7 8 8 8 7 6 7 7 7 6 6 6 7 7 7 7 7 7 6 5 7 7 6 7 8 10 11 11 11 11 10 10 10 10 9 9 9 9 9 9 9 8 9 9 10 10 9 9 9 8 8 8 8 8 9 10 10 11 11 11 11 11 11 10 10 10 9 9 9 8 8 8 8
13 13 13 12 10 10 10 9 9 9 9 9 8 8 8 7 7 7 7 7 7 7 6 6 7 8 8 8 8 7 6 6 7 7 7 8 8 10 11 12 12 11 10 10 9 9 10 10 9 8 8 8 8 8 8 8 9 8 8 7 7 8 8 8 9 10 11 11 12 12 12 12 12 12 11 10 10 9 9 9 9 9 9 8 8
13 14 13 12 11 11 10 10 9 10 11 10 10 9 8 7 7 8 8 8 9 9 8 7 7 8 9 9 8 7 6 6 7 8 8 8 9 10 10 10 11 11 11 10 9 9 10 9 8 8 7 7 7 7 7 7 7 7 6 6 6 7 8 8 9 10 11 11 11 11 11 12 12 12 12 11 10 9 9 9 9 8 8 8 8
15 16 14 12 12 11 10 9 9 11 12 12 10 9 9 8 8 8 8 8 9 9 9 8 8 8 9 9 8 6 6 7 8 10 10 8 9 10 9 7 8 9 10 10 9 9 9 8 7 8 7 6 7 7 7 6 6 7 6 5 5 6 7 8 8 8 8 8 8 9 10 11 12 12 13 12 11 9 9 9 9 9 9 8 8
15 15 14 12 12 11 10 9 8 11 13 13 12 11 10 10 10 11 10 10 9 9 9 9 9 9 9 10 9 7 7 9 12 14 13 11 10 9 8 7 6 7 8 9 9 8 8 8 7 8 9 7 7 8 8 7 6 6 6 5 5 5 5 5 5 5 6 6 7 8 9 10 11 12 13 14 13 11 10 9 9 9 9 9 8
15 14 14 13 13 12 10 8 8 11 14 14 13 13 13 13 12 12 12 11 10 11 10 9 11 11 10 11 9 8 11 13 16 17 14 12 11 9 8 7 7 7 6 8 9 8 8 8 7 9 9 9 8 9 8 6 5 5 6 6 5 5 4 4 3 1 2 4 5 7 8 10 11 12 13 14 14 13 11 10 10 10 9 9 9
15 14 13 13 13 12 10 9 8 11 14 14 14 14 14 13 12 11 12 11 10 11 12 12 14 14 13 13 11 12 14 16 17 16 13 12 11 8 8 7 7 7 6 6 8 8 7 7 8 9 9 9 9 9 8 7 6 6 7 7 7 6 6 6 6 4 3 3 4 5 7 9 10 12 13 14 15 15 13 12 11 10 10 10 9
15 14 13 12 12 12 11 9 8 11 14 15 15 14 14 13 12 11 11 10 9 11 12 12 14 15 13 13 15 16 16 15 14 13 12 12 10 8 7 6 6 6 5 5 7 9 8 7 8 10 10 10 10 10 9 8 7 7 8 8 8 7 8 8 9 8 5 4 4 5 7 8 10 12 13 14 15 16 15 13 12 11 11 10 10
15 14 13 13 13 12 11 9 9 11 14 15 15 14 13 12 12 11 10 9 10 11 11 11 12 15 15 15 16 17 15 14 12 10 9 9 8 6 5 4 4 4 4 4 6 9 9 8 9 11 10 9 11 12 12 10 9 8 9 10 9 8 9 8 9 8 6 5 6 6 7 9 10 11 13 14 15 16 17 15 13 12 11 11 11
15 14 13 13 14 13 12 10 10 12 14 15 15 13 12 11 11 10 10 10 11 11 11 10 10 12 14 15 14 13 12 12 11 8 8 7 6 5 4 3 3 3 4 5 5 7 9 9 10 11 10 10 12 13 13 12 11 9 11 11 10 9 10 9 9 11 9 7 8 7 8 9 10 12 13 14 16 17 18 16 14 13 12 11 11
14 14 13 13 14 13 13 11 11 12 14 15 15 13 13 11 10 10 11 12 12 10 10 10 10 10 12 13 12 10 10 10 9 7 6 6 4 4 3 3 3 3 4 5 6 7 9 10 11 11 11 11 11 12 13 13 12 12 12 12 11 11 11 9 11 14 11 9 10 10 10 11 11 13 14 15 16 17 18 17 15 13 12 12 12
14 14 13 13 13 13 13 11 11 12 13 15 15 14 14 13 12 11 12 13 13 12 11 11 10 10 10 10 10 9 8 7 6 6 5 4 4 3 3 3 3 3 3 4 6 8 9 10 10 10 11 11 10 12 13 13 13 13 13 13 13 13 12 11 13 15 13 12 13 12 12 13 13 14 15 16 17 18 18 18 16 14 13 13 13
13 13 13 13 13 12 11 11 10 11 13 14 15 15 15 14 14 13 14 14 13 13 12 11 10 10 9 9 9 8 7 6 5 5 5 4 3 3 3 3 3 3 3 2 4 7 9 10 10 10 11 11 11 12 13 14 14 14 14 15 14 14 14 14 16 17 16 14 15 15 15 16 15 16 17 18 18 19 19 18 16 15 14 14 14
11 12 12 13 12 11 10 10 10 11 13 15 16 16 15 14 14 14 14 14 13 12 11 10 9 9 8 7 7 7 6 6 5 5 5 4 4 3 4 4 4 3 3 3 4 6 8 9 10 10 11 11 12 12 13 14 15 15 15 16 16 16 16 18 19 19 18 17 16 16 17 17 17 18 19 19 20 19 20 19 17 16 16 15 16
11 10 10 12 12 11 11 10 10 12 14 15 16 15 13 13 13 13 12 12 10 10 10 9 9 8 6 6 6 5 6 6 5 5 4 4 3 3 3 4 4 4 4 4 5 6 7 8 9 10 11 12 13 13 13 15 16 17 17 17 17 17 18 20 21 21 21 21 19 19 19 19 19 20 20 21 21 20 19 20 18 17 17 16 17
12 11 9 10 10 11 11 11 11 12 13 13 16 15 13 12 12 10 10 10 9 8 8 8 8 8 6 6 6 6 6 6 6 5 4 4 4 4 4 3 3 4 4 5 6 7 7 8 9 10 11 12 14 14 15 17 18 18 17 18 19 18 18 20 21 22 23 22 20 20 21 21 20 20 21 21 23 22 20 21 20 17 17 18 18
13 12 10 10 9 9 10 10 11 12 14 16 19 19 16 14 12 9 10 10 8 8 7 7 8 8 8 8 7 7 7 6 6 5 5 6 6 6 6 5 5 5 5 6 6 7 8 8 9 10 11 13 14 14 16 18 18 18 18 19 20 19 18 20 22 25 26 24 19 17 18 21 20 18 17 17 21 23 20 20 23 20 18 20 21
12 11 11 11 11 11 11 11 11 13 16 19 19 19 18 16 14 12 10 9 9 9 8 7 7 8 9 9 9 9 8 7 7 7 7 7 7 8 8 8 8 8 8 8 8 8 9 9 10 11 12 13 14 14 16 17 18 18 18 21 22 22 23 25 27 28 29 27 23 18 15 20 22 17 13 13 18 23 20 19 22 21 20 22 23
12 11 10 11 12 12 12 13 13 14 16 17 17 17 17 15 14 13 11 10 10 10 9 9 8 8 9 10 11 11 10 9 9 9 9 9 9 10 10 10 10 10 11 11 11 11 12 11 12 12 12 13 13 13 15 16 16 17 19 22 25 26 29 32 30 28 27 27 26 21 17 20 23 18 14 15 20 23 22 21 21 20 21 23 24
12 12 10 10 9 10 11 13 13 13 13 14 16 16 15 15 14 13 12 12 12 11 10 10 10 9 10 10 10 12 13 13 12 11 11 12 12 12 13 13 13 13 14 14 14 15 15 15 15 14 13 13 14 14 14 15 16 17 19 22 25 26 30 33 31 29 29 28 26 24 21 20 21 19 16 17 22 25 24 21 21 21 23 24 24
13 13 12 11 10 9 10 10 9 9 11 12 13 15 15 15 14 14 14 14 13 13 13 13 12 12 13 12 12 12 13 14 15 15 14 15 16 16 16 16 17 17 17 17 18 18 18 18 18 17 16 15 15 15 15 16 17 18 20 20 21 22 25 29 30 31 32 30 28 26 22 20 20 20 14 14 20 24 24 23 23 23 23 24 23
14 14 13 13 12 11 11 10 10 10 10 11 12 14 14 14 14 14 14 14 14 14 15 15 16 16 17 17 17 16 16 17 19 18 17 18 19 19 20 20 20 20 20 20 21 20 20 20 19 19 18 17 18 17 17 17 18 20 22 21 19 20 23 27 30 31 32 31 29 27 23 20 19 17 11 10 15 19 19 22 27 26 22 22 22
13 13 13 14 15 13 13 14 15 15 15 14 13 13 14 14 14 14 14 14 14 15 16 16 17 18 19 19 20 21 21 20 21 21 20 21 21 22 22 22 21 22 23 24 24 23 23 23 22 22 21 21 21 21 19 19 20 22 25 25 22 23 24 25 26 28 31 31 29 26 22 18 17 17 14 12 16 19 17 19 26 27 22 21 23
13 13 13 14 15 15 14 14 15 15 15 14 14 13 14 14 14 14 14 15 15 16 17 18 19 20 21 22 22 22 22 21 21 22 22 22 23 24 24 23 21 22 23 24 25 24 24 25 25 25 25 24 24 23 23 22 22 23 25 24 23 23 22 20 22 27 30 30 27 24 20 16 16 19 19 17 19 23 22 20 23 25 23 22 23
13 13 12 11 12 13 13 12 13 13 13 13 13 13 13 13 14 15 15 16 17 18 19 19 20 19 20 22 21 21 22 22 21 21 22 23 24 24 24 23 22 23 22 22 23 23 23 25 26 25 25 25 24 24 23 23 22 23 23 21 21 23 23 23 26 30 30 27 25 24 20 17 17 19 20 20 20 21 20 19 20 23 23 23 24
10 10 11 10 10 10 10 11 11 12 12 11 11 12 13 13 14 15 16 16 17 18 18 18 18 16 16 17 17 17 18 19 19 19 20 21 21 22 22 22 22 22 20 21 22 22 20 21 23 25 25 24 24 23 23 22 22 23 23 22 22 24 26 27 29 30 27 24 22 21 19 18 18 17 18 20 18 14 13 16 18 20 21 20 20
Wind_Direction
159 160 165 167 165 166 171 171 170 172 174 168 162 166 167 172 165 149 151 158 171 171 173 188 189 188 190 189 184 180 177 172 177 168 156 164 176 177 106 106 87 62 60 67 76 88 98 103 99 90 80 72 63 52 43 40 36 38 36 38 40 40 41 37 36 35 36 39 45 46 47 49 49 51 47 44 45 46 49 47 45 45 44 44 44
164 164 166 166 164 168 175 175 173 169 169 171 171 173 174 176 162 153 162 162 168 169 164 166 173 183 184 185 188 187 188 184 181 173 161 165 180 179 147 123 99 67 60 66 75 83 87 94 95 90 86 80 73 63 49 38 31 31 31 37 41 44 47 43 39 33 29 32 38 42 46 48 47 52 53 49 47 45 47 48 47 45 43 43 43
168 168 168 170 169 171 181 183 176 166 165 178 180 176 178 182 179 177 178 176 177 174 167 158 160 177 178 184 189 188 189 188 182 178 175 176 180 169 148 150 138 91 68 72 76 84 84 91 100 99 93 85 76 66 55 47 42 42 46 54 58 60 61 58 55 45 41 39 38 40 43 46 44 47 51 49 48 46 45 45 46 47 45 44 44
173 175 175 175 175 179 185 189 188 177 177 188 189 184 185 192 198 194 187 185 183 186 181 157 158 175 177 184 183 183 191 192 190 189 186 182 181 166 157 171 171 131 75 78 74 78 86 94 103 105 98 86 75 63 56 53 51 53 58 71 78 82 83 78 74 64 57 51 47 46 44 46 44 43 46 45 44 44 45 44 43 43 43 43 42
180 183 183 181 182 190 189 190 198 195 191 192 196 193 190 197 203 200 195 194 194 199 185 160 178 185 175 182 186 193 197 194 197 200 192 181 179 161 154 180 181 145 89 87 78 78 90 97 102 108 104 91 81 66 58 56 55 58 66 76 84 92 96 91 86 74 63 57 52 51 48 47 45 42 41 40 42 41 42 44 43 40 39 41 39
187 190 189 188 190 198 198 197 203 208 200 189 195 199 194 195 194 200 201 194 196 193 168 151 173 183 187 199 204 210 205 196 200 206 197 177 175 157 151 182 190 169 127 99 88 87 99 108 112 115 110 102 96 80 65 61 59 65 74 81 86 88 89 87 84 77 68 63 59 59 57 54 49 45 40 38 41 41 42 43 44 43 40 41 41
194 195 193 195 200 207 210 211 214 217 207 189 198 204 199 196 186 190 198 191 195 192 181 173 176 195 208 209 209 212 204 199 200 194 185 178 185 174 165 181 193 182 161 142 121 97 103 123 132 126 119 112 110 102 83 72 68 71 75 78 80 78 78 77 77 77 75 72 69 68 64 64 61 53 48 42 41 43 44 43 43 44 43 41 41
195 199 202 205 210 216 219 223 223 223 214 200 206 204 200 204 191 185 189 190 193 196 201 200 204 212 209 199 199 202 191 197 197 160 153 195 201 187 173 178 187 180 167 164 160 120 97 111 124 129 130 122 118 113 104 93 83 79 75 72 73 74 75 75 76 75 75 74 71 69 66 66 68 63 60 53 48 46 46 45 43 44 44 43 41
197 201 205 208 210 217 222 223 219 217 213 202 202 198 195 210 198 187 185 187 191 196 200 198 209 209 187 180 186 187 171 185 184 130 142 191 188 180 174 173 175 170 170 168 159 138 100 90 95 112 131 131 124 116 117 118 102 89 78 71 68 69 72 76 77 75 74 73 70 68 67 65 67 71 70 65 60 53 49 49 46 44 45 46 43
200 201 205 207 206 215 224 221 213 209 206 194 195 190 184 198 201 195 186 182 191 196 197 191 195 189 173 171 170 168 162 175 162 127 151 183 172 180 181 179 174 166 177 173 151 137 116 91 79 86 118 138 131 123 126 123 107 97 90 79 70 62 68 76 78 76 74 72 67 63 63 62 63 67 70 69 66 61 55 53 52 48 46 47 48
201 201 203 207 208 215 220 215 209 203 196 190 194 187 176 186 202 197 183 177 186 187 194 196 188 164 153 161 164 165 163 163 148 139 163 182 179 188 182 180 177 167 178 163 134 134 129 109 90 95 104 134 138 132 133 130 118 105 96 94 75 55 64 73 70 69 69 67 61 54 55 60 62 63 65 68 67 64 59 54 52 49 45 44 46
201 198 199 202 207 212 209 206 204 197 190 190 194 182 172 182 193 196 183 178 181 177 184 185 164 140 138 154 157 150 141 138 138 143 156 172 179 178 165 165 163 167 179 149 123 128 128 118 111 109 102 117 139 139 141 140 131 117 103 101 56 18 46 71 58 40 40 49 55 48 48 60 68 67 65 66 67 66 61 54 49 46 44 43 44
197 192 194 196 202 206 201 198 198 193 190 193 194 177 171 185 188 185 179 175 175 175 176 163 144 138 135 139 137 129 127 128 132 136 141 158 168 165 159 158 161 178 184 158 143 131 129 125 116 109 96 95 112 128 142 150 132 104 43 55 32 16 22 25 35 14 4 23 41 51 47 57 76 80 75 69 68 66 61 53 49 46 43 43 47
192 189 190 194 197 200 197 193 194 192 187 191 192 175 173 189 190 178 174 176 177 179 175 159 154 157 149 146 139 128 124 123 131 139 140 145 155 165 167 168 173 185 191 174 154 140 148 129 111 103 98 96 95 98 97 142 114 71 49 68 57 49 38 16 21 196 246 7 18 20 28 33 64 85 88 79 67 65 62 54 48 47 45 44 48
188 188 188 191 191 192 195 193 191 185 180 191 189 175 175 185 188 175 174 181 179 183 178 164 170 175 169 170 158 140 130 133 152 152 142 139 141 153 173 193 191 182 185 168 141 137 156 117 103 100 102 110 133 127 85 359 66 76 68 61 48 46 37 23 33 157 201 344 3 346 347 13 50 70 84 90 73 60 60 55 52 53 48 41 44
184 188 189 189 184 185 188 190 191 180 180 196 188 177 183 186 185 178 182 188 183 187 184 173 175 182 187 186 174 174 159 158 174 151 128 127 125 138 166 189 184 178 187 175 174 193 184 131 109 102 107 117 171 169 154 10 20 67 62 41 40 49 45 44 55 92 117 70 38 7 332 33 62 40 329 232 213 345 18 38 48 49 42 38 43
181 185 187 184 182 183 183 187 193 185 190 200 186 180 187 186 187 186 188 188 182 189 191 181 177 184 193 166 182 214 179 163 172 140 125 120 106 122 151 155 147 159 171 181 204 209 208 204 181 166 164 152 176 182 165 140 107 80 76 70 66 64 60 65 71 82 89 79 73 81 86 78 67 46 11 330 270 301 339 18 9 312 348 23 28
177 182 183 181 182 183 182 185 187 185 195 198 184 181 185 185 189 189 186 184 180 186 192 187 183 190 190 164 187 254 141 165 175 142 131 112 100 116 132 139 135 132 137 156 192 188 191 202 188 181 181 157 166 176 169 164 141 108 103 101 85 81 87 90 88 85 84 80 78 81 83 81 74 68 65 65 67 63 70 85 79 50 19 18 16
175 179 180 178 180 181 181 182 181 183 193 197 192 187 182 183 187 185 186 188 183 180 184 183 184 194 187 166 173 41 129 176 181 146 137 120 113 119 118 119 121 128 142 151 158 159 169 169 145 127 118 113 101 92 107 123 124 114 108 106 97 94 96 95 91 87 85 82 78 77 76 78 77 74 73 71 72 74 78 86 83 70 58 50 45
174 176 177 175 177 179 178 179 180 181 185 192 197 192 180 181 183 181 185 189 185 179 182 182 179 193 193 175 162 142 147 180 185 168 148 135 133 129 121 116 130 158 166 159 156 151 153 147 126 117 125 120 108 104 105 108 116 114 108 108 103 97 93 90 86 83 83 82 76 74 73 74 75 74 74 71 72 73 73 77 76 68 65 64 61
174 173 173 174 176 179 179 177 177 178 181 183 189 192 186 184 183 181 181 183 184 179 181 190 184 186 198 184 168 175 171 173 183 186 160 149 147 144 143 140 146 161 159 155 153 143 138 126 109 117 129 117 109 115 111 106 115 116 111 107 99 91 87 84 82 80 78 76 73 71 69 67 67 66 65 64 63 63 62 62 60 55 53 52 49
176 174 173 175 177 179 178 178 178 179 181 179 179 186 188 186 183 180 178 174 180 182 183 195 189 179 187 181 172 180 177 168 173 167 162 153 142 142 151 145 131 135 135 131 128 122 115 103 101 115 116 102 100 107 105 109 116 114 108 100 92 87 85 83 82 79 76 73 70 67 64 62 61 59 57 55 53 52 50 47 44 40 37 36 34
176 174 174 174 173 175 175 177 180 179 181 178 177 181 182 185 180 173 172 167 174 187 187 196 194 177 178 184 180 178 169 167 172 166 161 145 137 139 142 136 126 125 120 103 99 102 99 95 102 111 110 110 117 116 111 113 111 104 97 93 88 84 82 80 79 77 76 75 72 69 66 64 60 57 55 52 49 46 43 40 37 32 29 25 23
176 173 172 170 171 175 176 177 178 178 180 177 178 178 175 179 174 164 168 171 176 183 184 195 193 175 178 190 183 169 161 163 164 164 156 147 150 145 137 133 127 124 121 109 106 110 106 105 108 111 115 119 121 118 114 110 102 96 94 92 89 85 81 78 75 74 74 74 74 72 70 68 65 62 61 58 56 52 47 43 38 32 28 22 18
173 169 167 168 172 176 176 175 176 180 182 177 173 173 171 173 174 169 167 168 172 172 175 188 182 173 182 189 174 163 164 161 157 158 151 147 153 147 140 140 133 129 129 125 124 122 117 121 121 117 120 122 122 119 113 106 98 96 96 95 93 89 83 78 74 71 71 70 70 69 67 66 65 63 62 60 59 57 55 51 46 40 34 29 24
169 167 166 170 174 176 176 174 173 175 177 177 172 170 174 172 166 168 165 159 159 160 166 177 175 176 182 180 172 166 162 156 155 154 150 148 151 150 146 143 136 132 133 135 135 130 126 127 124 121 125 128 126 120 113 107 101 98 98 97 94 89 84 81 77 74 72 70 67 65 62 60 59 58 57 56 55 54 53 51 47 43 39 33 29
169 171 170 173 177 177 178 179 174 167 167 172 170 168 174 171 161 157 152 144 141 145 154 164 169 175 178 175 173 170 159 151 153 153 151 149 151 154 150 143 138 137 138 140 139 135 133 129 126 130 135 133 126 122 118 111 104 100 97 95 93 92 92 90 87 83 78 74 70 66 62 58 55 53 52 50 51 51 50 48 45 40 36 30 24
172 173 171 176 183 178 176 181 177 168 166 169 168 166 167 166 159 151 146 141 136 135 139 147 158 167 171 170 169 171 164 150 150 152 149 147 150 152 148 142 141 141 143 144 138 138 140 135 134 140 142 136 132 129 122 116 112 106 100 102 105 105 105 103 97 91 86 81 76 70 65 60 57 53 50 48 46 47 47 46 44 38 33 27 19
172 170 168 175 182 175 174 181 178 172 171 166 162 164 162 159 152 147 145 141 136 135 135 137 145 154 160 161 159 165 163 149 148 149 142 138 142 142 139 141 143 144 149 148 141 145 149 145 144 149 152 152 148 141 135 138 133 121 122 134 132 127 123 115 107 98 90 81 73 67 60 56 54 51 48 46 43 43 43 41 40 37 31 25 18
169 166 164 170 176 171 172 178 173 171 169 162 157 156 154 150 142 136 133 128 128 134 136 134 136 141 148 149 148 157 157 148 146 144 136 131 130 128 126 130 135 142 147 142 138 147 154 151 151 157 164 168 161 152 154 164 159 144 155 170 161 153 145 134 123 102 82 68 58 54 49 45 43 43 41 40 38 36 37 36 36 33 28 23 16
169 166 163 167 170 167 170 171 164 166 165 158 153 152 149 144 137 134 131 123 121 125 129 131 130 130 136 138 141 150 148 144 145 141 134 131 128 120 116 114 116 125 134 135 135 143 155 157 155 163 173 177 173 171 175 187 188 177 185 195 196 198 197 194 188 122 40 41 40 38 38 35 32 32 30 30 29 28 28 29 28 25 21 16 12
170 168 167 168 167 167 169 166 156 160 161 154 152 153 148 141 137 137 133 124 119 120 124 129 127 123 128 133 138 143 140 139 143 143 140 137 133 124 119 114 114 120 126 135 136 141 158 167 166 173 184 186 185 188 193 206 211 200 205 217 222 225 230 236 246 268 306 344 11 19 23 22 20 19 18 18 18 17 18 18 17 16 12 6 3
172 168 168 169 169 169 168 161 155 160 161 157 154 152 148 144 141 138 132 127 126 122 120 126 128 125 125 129 134 138 137 137 142 144 143 140 135 132 131 125 127 133 134 141 143 148 163 176 174 180 193 193 190 193 197 212 224 211 212 229 234 231 236 250 263 271 281 306 334 354 1 5 6 5 5 6 6 7 8 8 8 6 3 358 355
171 167 170 170 170 171 167 161 156 157 160 158 154 151 150 151 148 142 136 135 135 129 121 123 129 127 125 125 129 135 138 138 139 140 141 143 142 146 150 147 152 156 154 156 158 162 172 179 176 185 203 199 189 195 201 216 233 220 214 233 241 234 233 245 262 269 274 292 312 330 338 345 349 349 350 352 354 356 358 359 359 357 355 352 348
168 167 172 171 169 170 167 164 159 156 160 162 157 154 154 153 151 150 147 144 142 136 128 125 129 131 129 127 128 132 135 133 135 140 143 149 157 166 176 189 198 201 196 189 186 181 182 185 182 189 206 205 193 198 205 216 231 219 208 225 235 231 234 235 242 258 272 286 298 311 320 326 332 333 336 340 342 346 349 350 351 348 348 345 342
168 170 172 169 170 170 167 167 164 159 164 166 160 156 157 154 150 149 147 145 143 140 137 135 134 135 133 131 132 135 135 132 135 141 145 150 161 173 190 210 218 228 225 214 212 208 197 194 192 192 204 210 199 199 204 210 221 217 207 218 222 223 235 232 233 253 270 281 288 298 305 309 316 320 323 327 331 336 340 342 343 340 339 338 335
169 171 168 168 171 171 168 169 170 164 164 166 163 162 161 154 147 143 143 146 147 147 149 144 140 140 141 142 145 145 144 143 143 148 155 160 164 176 204 218 219 233 246 229 217 219 213 205 201 196 201 208 204 204 208 208 215 217 213 218 221 223 231 228 235 257 272 276 283 291 293 297 303 307 312 317 320 326 332 335 335 333 332 331 328
166 168 168 170 171 170 168 169 173 170 165 163 163 163 160 153 148 146 145 147 151 152 153 151 150 151 150 153 157 156 155 159 166 171 176 181 180 186 202 208 211 229 251 245 217 218 219 215 209 202 202 208 208 210 212 211 214 218 217 221 224 225 227 227 239 261 272 272 279 286 287 290 295 298 303 307 311 318 324 327 328 327 326 324 322
158 162 169 171 167 167 170 169 172 173 168 165 163 162 159 155 152 151 150 150 151 153 153 153 156 156 155 164 168 166 167 171 180 190 197 203 199 191 200 203 209 229 238 232 223 217 218 219 216 212 214 215 214 215 220 219 219 222 222 223 226 225 227 232 242 260 270 271 274 280 281 285 289 292 296 299 303 311 317 320 322 321 319 319 316
154 158 168 171 167 167 168 167 171 175 170 166 164 160 159 162 161 159 158 155 157 160 159 160 163 157 156 167 167 166 175 180 186 193 196 197 188 184 202 207 211 227 229 225 227 221 220 224 223 222 225 223 220 220 221 219 221 226 225 225 228 225 228 238 246 255 265 270 272 273 275 279 282 286 290 293 296 304 312 314 315 315 314 312 310
156 155 162 169 170 169 167 166 170 171 165 167 169 164 162 167 166 165 167 165 166 169 170 174 178 173 169 175 179 183 193 200 205 208 204 198 189 193 214 223 221 231 236 237 240 236 235 235 231 230 231 229 228 226 223 222 228 234 229 226 231 229 228 236 244 250 256 262 266 267 270 274 275 279 287 290 295 304 310 309 309 311 309 307 307
161 158 159 162 165 168 166 164 167 169 171 177 178 174 172 173 170 174 179 178 177 177 181 188 193 195 195 195 198 200 204 207 208 210 214 215 213 217 228 235 233 235 238 240 244 245 244 245 243 242 240 239 240 238 234 234 241 245 236 229 233 231 226 230 238 249 255 254 248 245 257 268 268 271 279 281 288 300 306 304 306 311 308 306 307
164 161 161 161 163 166 164 162 169 179 183 184 181 181 184 183 181 184 186 189 193 192 193 196 201 207 207 206 208 209 209 210 212 216 221 226 229 231 235 238 237 238 240 242 246 247 248 250 249 248 246 248 250 249 247 246 247 246 238 235 238 234 233 238 242 250 260 259 247 231 236 260 265 263 261 258 274 291 297 296 301 305 304 304 306
165 161 162 162 163 169 173 174 180 185 187 187 187 188 191 192 193 195 196 203 207 206 206 205 207 211 210 210 213 215 216 220 225 232 234 235 238 239 241 243 243 245 247 249 250 247 249 253 254 253 253 255 257 256 256 254 249 248 245 247 251 248 249 255 252 249 257 261 253 239 234 254 265 262 254 255 270 285 292 293 297 299 300 303 304
171 169 168 167 166 173 179 179 182 186 189 195 199 200 201 203 204 203 205 209 211 213 216 216 216 218 216 218 223 228 231 232 234 240 244 247 249 249 251 252 252 253 254 255 255 250 250 253 255 256 255 257 260 259 259 257 252 253 255 256 259 260 260 261 255 248 253 257 256 250 241 245 260 265 265 267 275 285 292 295 297 299 301 303 303
194 185 180 182 187 195 192 184 183 189 197 205 208 209 210 210 210 209 212 215 217 222 226 226 228 230 228 229 231 235 241 242 242 245 249 254 257 258 258 258 259 260 259 259 259 256 254 255 258 260 260 260 263 262 262 263 256 256 261 260 259 260 258 256 254 252 254 254 253 249 240 236 252 267 273 268 272 286 296 299 300 303 304 303 302
204 201 199 199 205 214 212 211 218 223 228 232 227 221 218 217 218 221 225 229 232 236 239 239 240 242 242 243 243 244 248 251 253 253 253 257 260 263 264 265 266 266 264 263 263 261 259 259 260 264 265 264 263 261 261 263 261 262 266 264 258 257 256 258 258 256 254 252 249 246 240 236 246 259 265 254 260 278 292 297 300 305 306 303 302
204 209 211 209 213 220 217 217 225 233 240 244 239 233 231 230 232 235 239 243 244 246 249 250 251 251 251 250 250 249 251 253 254 254 254 256 259 262 265 267 266 267 267 269 270 266 263 263 263 264 266 265 264 263 260 258 261 266 270 271 270 266 261 258 255 250 246 245 245 244 242 238 242 253 258 251 255 270 280 286 293 300 304 303 302
198 198 204 207 213 221 222 220 226 233 239 242 242 241 239 239 241 244 246 248 250 252 254 256 257 257 255 253 253 254 256 257 257 258 258 259 261 263 265 265 264 265 268 271 272 268 263 264 265 265 265 265 265 264 262 258 257 260 266 271 272 267 258 244 237 239 242 241 240 242 242 238 245 261 268 263 265 278 285 285 287 296 304 304 302
192 192 199 204 208 215 218 219 224 230 235 240 243 244 244 243 244 246 249 251 252 254 257 258 258 259 260 260 260 261 262 264 266 267 267 266 266 267 267 265 265 266 267 269 272 272 268 266 265 265 265 265 265 265 264 261 256 254 257 261 262 263 261 250 241 243 246 243 239 241 245 247 252 265 273 274 279 287 288 284 289 299 306 306 309
191 192 199 206 209 213 216 221 229 235 238 242 245 247 251 253 254 255 256 255 254 255 256 259 261 263 266 268 268 265 265 270 273 273 273 272 271 270 270 269 269 270 269 269 271 274 275 271 267 265 265 266 266 265 264 263 259 255 254 255 257 264 267 261 252 246 242 239 238 240 247 253 258 263 269 276 285 287 275 274 287 299 302 303 307